Regional Weather Roundup
Issued by NWS

Home | Current Version | Previous Version | Text Only | Print | Product List | Glossary Off
Versions: 1 2 3 4 5 6 7 8 9 10 11 12 13 14 15 16 17 18 19 20 21 22 23 24 25 26 27 28 29 30 31 32 33 34 35 36 37 38 39 40 41 42 43 44 45 46 47 48 49 50

000
ASUS43 KLOT 300600
RWRIL

ILLINOIS REGIONAL WEATHER ROUNDUP
NATIONAL WEATHER SERVICE CHICAGO/ROMEOVILLE IL
1200 AM CST FRI JAN 30 2015

NOTE: "FAIR" INDICATES FEW OR NO CLOUDS BELOW 12,000 FEET WITH NO
SIGNIFICANT WEATHER AND/OR OBSTRUCTIONS TO VISIBILITY.

* THESE STATIONS ARE NOT UNDER NWS QUALITY CONTROL. THEY ALSO MAY NOT
  REPORT WEATHER SUCH AS PRECIPITATION OR FOG.

ILZ001-002-007-009-015-016-024-300700-
NORTHWEST ILLINOIS

CITY           SKY/WX    TMP DP  RH WIND       PRES   REMARKS
MOLINE         PTCLDY    27  18  69 NW12      30.43R WCI  17
6HR MIN TEMP:  27; 6HR MAX TEMP:  34;

STERLING*      CLEAR     28  16  59 NW12      30.39R WCI  18
$$

ILZ003-004-008-010-011-017-018-300700-
NORTH CENTRAL ILLINOIS

CITY           SKY/WX    TMP DP  RH WIND       PRES   REMARKS
ROCKFORD       FLURRIES  29  17  61 N12       30.37R WCI  19
6HR MIN TEMP:  29; 6HR MAX TEMP:  35; 6HR PCP: TRACE;

$$

ILZ005-006-012>014-019>023-300700-
NORTHEAST ILLINOIS

CITY           SKY/WX    TMP DP  RH WIND       PRES   REMARKS
CHICAGO-OHARE  CLOUDY    29  22  75 N15       30.31R WCI  18
6HR MIN TEMP:  29; 6HR MAX TEMP:  34; 6HR PCP: TRACE;

CHICAGO-MIDWAY FLURRIES  32  23  69 N14       30.31R WCI  22
6HR MIN TEMP:  32; 6HR MAX TEMP:  37; 6HR PCP: TRACE;

AURORA         CLOUDY    30  17  58 N18       30.33R WCI  18
6HR MIN TEMP:  30; 6HR MAX TEMP:  35;

WAUKEGAN       CLOUDY    27  13  55 NW13G22   30.31R WCI  16
6HR MIN TEMP:  27; 6HR MAX TEMP:  34;

DUPAGE AIRPORT PTCLDY    29  16  58 N15G29    30.31R WCI  18
6HR MIN TEMP:  29; 6HR MAX TEMP:  34;

WHEELING       CLOUDY    29  18  63 N13       30.33R WCI  19
6HR MIN TEMP:  29; 6HR MAX TEMP:  35; 6HR PCP: TRACE;

NORTHERLY ISL    N/A     31  21  66 N17         N/A  WCI  20
$$

LMZ740>746-300700-
SOUTHERN LAKE MICHIGAN

STATION/POSITION SKY/WX   TEMP    WIND        PRES    VSBY  WAVE
                          AIR SEA DIR/SP/G                  HT/PER
                          (F)     (DEG/KT/KT) (MB)    (MI)  (FT/S)
WAUKEGAN HARBOR            29     350/ 10/ 18   N/A
HARRISON CRIB              31     350/ 25/ 28   N/A
BURNHAM HARBOR             30     360/ 15/ 23   N/A
CALUMET HARBOR             31     340/ 14/ 22   N/A
MICHIGAN CITY              31     340/ 32/ 39   N/A
$$

ILZ025>027-034>036-040-047-049-050-058-095>099-300700-
WEST-CENTRAL ILLINOIS

CITY           SKY/WX    TMP DP  RH WIND       PRES   REMARKS
QUINCY         MOCLDY    28  20  71 NW16      30.46R WCI  16
$$

ILZ028>032-037-038-041>044-048-051>054-059>061-300700-
CENTRAL ILLINOIS

CITY           SKY/WX    TMP DP  RH WIND       PRES   REMARKS
DECATUR        CLOUDY    33  22  63 NW17G29   30.37R WCI  22
PEORIA         CLOUDY    32  20  61 NW9G21    30.40R WCI  24
6HR MIN TEMP:  32; 6HR MAX TEMP:  36;

SPRINGFIELD    CLOUDY    34  22  61 NW13      30.40R WCI  25
6HR MIN TEMP:  34; 6HR MAX TEMP:  36;

TAYLORVILLE    NOT AVBL
$$

ILZ033-039-045-046-055>057-062-063-300700-
EAST-CENTRAL ILLINOIS

CITY           SKY/WX    TMP DP  RH WIND       PRES   REMARKS
CHAMPAIGN      CLOUDY    34  25  69 NW15      30.33R WCI  24
MATTOON        CLOUDY    33  25  72 NW18      30.33R WCI  22
$$

ILZ079-100>102-300700-
SOUTHWEST ILLINOIS

CITY           SKY/WX    TMP DP  RH WIND       PRES   REMARKS
BELLEVILLE     CLOUDY    35  24  64 NW16G22   30.42S WCI  26
CAHOKIA*       CLOUDY    37  25  61 NW18      30.44R WCI  27
$$

ILZ064>066-069>071-074>076-080>082-084>086-088>090-092>094-300700-
SOUTH-CENTRAL ILLINOIS

CITY           SKY/WX    TMP DP  RH WIND       PRES   REMARKS
CARBONDALE     CLOUDY    36  25  64 N12G22    30.42R WCI  28
6HR MIN TEMP:  36; 6HR MAX TEMP:  41;

MT. VERNON     CLOUDY    36  25  64 NW3       30.41R
$$

ILZ067-068-072-073-078-083-087-091-300700-
SOUTHEAST ILLINOIS

CITY           SKY/WX    TMP DP  RH WIND       PRES   REMARKS
LAWRENCEVILLE  CLOUDY    35  27  72 NW14      30.35R WCI  26
$$

ABBREVIATIONS USED IN REMARKS
   TC - TEMPERATURE IN CELSIUS
  WCI - WIND CHILL INDEX
   HX - HEAT INDEX
  VSB - VISIBILITY
$$




USA.gov is the U.S. government's official web portal to all federal, state and local government web resources and services.